Regional Weather Roundup
Issued by NWS

Home | Current Version | Previous Version | Graphics & Text | Print | Product List | Glossary On
Versions: 1 2 3 4 5 6 7 8 9 10 11 12 13 14 15 16 17 18 19 20 21 22 23 24 25 26 27 28 29 30 31 32 33 34 35 36 37 38 39 40 41 42 43 44 45 46 47 48 49 50
000
ASUS45 KBOI 290410
RWRID

IDAHO REGIONAL WEATHER ROUNDUP
NATIONAL WEATHER SERVICE BOISE ID
1000 PM MDT TUE MAR 28 2017

NOTE: "FAIR" INDICATES FEW OR NO CLOUDS BELOW 12000 FEET
WITH NO SIGNIFICANT WEATHER AND/OR OBSTRUCTIONS TO VISIBILITY

IDZ012-014-290500-
SOUTHWEST IDAHO


CITY           SKY/WX    TMP DP  RH WIND       PRES   REMARKS
BOISE          PTCLDY    48  30  49 CALM      30.26R
CALDWELL       PTCLDY    48  33  56 NE5       30.26S
MOUNTAIN HOME  CLEAR     43  34  71 NW7       30.25S
$$

IDZ016-017-290500-
SOUTHCENTRAL IDAHO


CITY           SKY/WX    TMP DP  RH WIND       PRES   REMARKS
BURLEY         MOCLDY    42  28  57 SW10      30.24R
JEROME         CLEAR     42  30  62 SW12      30.25R
TWIN FALLS     CLEAR     38  29  70 SW12      30.26R WCI  30
$$

IDZ019>023-290500-
SOUTHEAST IDAHO


CITY           SKY/WX    TMP DP  RH WIND       PRES   REMARKS
IDAHO FALLS    CLOUDY    42  29  59 S14       30.21R
POCATELLO      CLOUDY    41  29  62 SW13      30.24R
REXBURG        CLOUDY    40  30  67 S9        30.19R WCI  34
$$

IDZ006-010-011-018-031-032-290500-
CENTRAL IDAHO MOUNTAINS


CITY           SKY/WX    TMP DP  RH WIND       PRES   REMARKS
MCCALL         MOCLDY    35  27  72 NE5       30.23R WCI  31
HAILEY         CLEAR     36  28  75 N6        30.22R WCI  31
STANLEY          N/A     31  23  72 CALM      30.23R
SALMON         PTCLDY    39  25  56 SW3       30.17R
CHALLIS        MOCLDY    41  23  48 E3        30.17R
$$

IDZ002-004-006-007-026-290500-
NORTHERN IDAHO


CITY           SKY/WX    TMP DP  RH WIND       PRES   REMARKS
LEWISTON       CLOUDY    47  41  80 E8        30.25S
LOWELL           N/A     44  41  89 CALM      30.30R
COEUR D`ALENE  CLOUDY    41  39  93 S8        30.21S
MULLAN PASS    LGT SNOW  28  28 100 VRB7      30.14R VSB 1   WCI  21
$$



USA.gov is the U.S. government's official web portal to all federal, state and local government web resources and services.